Date String (YYYY-MM-DD hh:mm:ss) UTC,Instrument flags,Ambient pressure (hPa),Sample flow (lpm),Bypass flow (lpm),Sample temperature (°C),Ambient temperature (°C),ASC tube jacket temperature (°C),LED temperature (°C),Box temperature (°C),Sample RH (%),Span deviation,Mass concentration (μg/m³),Mass concentration (μg/m³),Mass concentration (μg/m³)
DateTimeUTC,F1_M11,P_M11,Q1_M11,Q2_M11,T1_M11,T2_M11,T3_M11,T4_M11,T5_M11,U1_M11,ZSPAN_M11,X0_M11,X2_M11,X1_M11
2021-09-10 18:00:00,,0829.6,5.01,0.00,29.2,26.6,00.0,38.2,30.7,20.6,0000.9,0035.87,0019.18,0017.23
2021-09-10 18:01:00,,0829.6,4.99,0.00,29.0,25.9,00.0,38.1,30.5,20.9,0000.6,0036.44,0019.15,0017.19
2021-09-10 18:02:00,,0829.5,5.01,0.00,29.0,26.4,00.0,38.1,30.6,19.9,0000.4,0036.88,0019.11,0017.16
2021-09-10 18:03:00,,0829.6,5.01,0.00,29.0,26.8,00.0,38.1,30.7,19.4,0000.8,0036.81,0018.98,0017.07
2021-09-10 18:04:00,,0829.6,4.99,0.00,29.0,27.2,00.0,38.1,30.8,20.0,0000.6,0037.43,0018.93,0017.02
2021-09-10 18:05:00,,0829.5,4.99,0.00,29.1,27.5,00.0,38.1,30.9,19.7,0000.6,0037.45,0018.92,0016.97
2021-09-10 18:06:00,,0829.6,5.00,0.00,29.1,27.9,00.0,38.1,31.0,19.7,0000.5,0036.33,0018.84,0016.92
2021-09-10 18:07:00,,0829.6,5.00,0.00,29.2,27.9,00.0,38.1,31.0,19.6,-000.1,0035.46,0018.77,0016.86
2021-09-10 18:08:00,,0829.5,5.00,0.00,29.1,26.6,00.0,38.1,30.7,19.8,-000.7,0033.01,0018.66,0016.85
2021-09-10 18:09:00,,0829.5,5.00,0.00,29.0,25.9,00.0,38.1,30.5,20.1,-000.7,0031.57,0018.58,0016.84
2021-09-10 18:10:00,,0829.5,5.00,0.00,29.0,26.3,00.0,38.1,30.6,19.5,-000.9,0030.84,0018.49,0016.78
2021-09-10 18:11:00,,0829.5,5.00,0.00,29.0,26.8,00.0,38.1,30.7,18.4,-000.7,0031.06,0018.38,0016.74
2021-09-10 18:12:00,,0829.5,5.01,0.00,29.0,27.2,00.0,38.1,30.8,19.2,-000.6,0030.37,0018.31,0016.69
2021-09-10 18:13:00,,0829.5,4.99,0.00,29.1,27.5,00.0,38.1,30.9,19.1,-000.7,0030.44,0018.28,0016.65
2021-09-10 18:14:00,,0829.4,4.99,0.00,29.1,27.9,00.0,38.1,31.0,18.7,-000.6,0031.57,0018.28,0016.66
2021-09-10 18:15:00,,0829.5,5.00,0.00,29.2,27.9,00.0,38.1,31.0,19.3,0000.0,0031.41,0018.25,0016.66
2021-09-10 18:16:00,,0829.5,5.00,0.00,29.1,26.6,00.0,38.1,30.7,19.3,-000.2,0031.75,0018.24,0016.68
2021-09-10 18:17:00,,0829.5,5.01,0.00,29.0,25.9,00.0,38.1,30.5,18.7,-000.2,0032.15,0018.31,0016.70
2021-09-10 18:18:00,,0829.5,4.99,0.00,29.0,26.3,00.0,38.1,30.6,18.5,0000.3,0032.64,0018.25,0016.68
2021-09-10 18:19:00,,0829.5,5.00,0.00,29.0,26.7,00.0,38.1,30.7,19.1,0000.9,0033.00,0018.21,0016.66
2021-09-10 18:20:00,,0829.5,4.99,0.00,29.0,27.1,00.0,38.0,30.8,19.2,0000.4,0033.22,0018.20,0016.66
2021-09-10 18:21:00,,0829.5,5.00,0.00,29.1,27.5,00.0,38.1,30.9,18.7,0000.6,0033.21,0018.17,0016.65
2021-09-10 18:22:00,,0829.5,4.99,0.00,29.1,27.9,00.0,38.1,31.0,18.8,0000.7,0033.23,0018.16,0016.62
2021-09-10 18:23:00,,0829.5,5.01,0.00,29.1,27.2,00.0,38.1,30.8,18.1,0000.9,0032.87,0018.15,0016.60
2021-09-10 18:24:00,,0829.5,5.01,0.00,29.0,25.9,00.0,38.1,30.4,17.3,0001.3,0031.96,0018.11,0016.56
2021-09-10 18:25:00,,0829.5,5.00,0.00,28.9,26.0,00.0,38.0,30.4,16.8,0001.3,0030.64,0018.11,0016.52
2021-09-10 18:26:00,,0829.4,5.00,0.00,28.9,26.5,00.0,38.0,30.6,17.1,0000.6,0031.45,0018.12,0016.47
2021-09-10 18:27:00,,0829.4,5.01,0.00,28.9,26.9,00.0,38.0,30.6,15.7,0001.0,0031.57,0017.97,0016.37
2021-09-10 18:28:00,,0829.4,5.00,0.00,29.0,27.3,00.0,38.0,30.8,15.5,0001.5,0031.10,0017.86,0016.30
2021-09-10 18:29:00,,0829.3,5.00,0.00,29.0,27.6,00.0,38.0,30.9,15.8,0001.4,0030.23,0017.84,0016.25
2021-09-10 18:30:00,,0829.4,5.00,0.00,29.1,27.7,00.0,38.0,30.9,15.6,0000.8,0030.06,0017.80,0016.16
2021-09-10 18:31:00,,0829.3,5.00,0.00,29.0,26.4,00.0,38.0,30.6,15.5,0001.5,0029.88,0017.73,0016.06
2021-09-10 18:32:00,,0829.2,5.00,0.00,28.9,25.9,00.0,38.0,30.4,13.2,0000.9,0030.25,0017.63,0015.96
2021-09-10 18:33:00,,0829.2,5.01,0.00,28.9,26.4,00.0,38.0,30.5,12.8,0001.2,0029.32,0017.47,0015.86
2021-09-10 18:34:00,,0829.2,5.00,0.00,28.9,26.8,00.0,38.0,30.6,12.9,0001.7,0028.88,0017.32,0015.75
2021-09-10 18:35:00,,0829.2,5.00,0.00,28.9,27.1,00.0,38.0,30.7,14.7,0001.4,0028.81,0017.20,0015.69
2021-09-10 18:36:00,,0829.2,4.99,0.00,29.0,27.5,00.0,38.0,30.8,15.0,0001.1,0028.78,0017.11,0015.61
2021-09-10 18:37:00,,0829.2,5.01,0.00,29.1,27.8,00.0,38.0,31.0,13.5,0001.2,0027.81,0017.03,0015.55
2021-09-10 18:38:00,,0829.2,5.00,0.00,29.1,27.8,00.0,38.0,31.0,13.7,0001.4,0028.05,0017.01,0015.53
2021-09-10 18:39:00,,0829.2,5.01,0.00,29.1,26.5,00.0,38.0,30.6,11.3,0001.4,0028.86,0016.86,0015.43
2021-09-10 18:40:00,,0829.3,5.01,0.00,28.9,26.0,00.0,38.0,30.4,11.4,0001.4,0029.57,0016.69,0015.31
2021-09-10 18:41:00,,0829.3,4.99,0.00,28.9,26.5,00.0,38.0,30.6,12.4,0001.4,0029.29,0016.59,0015.22
2021-09-10 18:42:00,,0829.2,5.01,0.00,28.9,26.9,00.0,38.0,30.7,12.9,0001.0,0030.33,0016.48,0015.11
2021-09-10 18:43:00,,0829.2,4.99,0.00,29.0,27.2,00.0,38.0,30.8,12.3,0001.0,0031.90,0016.41,0015.05
2021-09-10 18:44:00,,0829.2,5.01,0.00,29.0,27.6,00.0,38.0,30.9,14.2,0000.4,0033.09,0016.39,0015.05
2021-09-10 18:45:00,,0829.2,5.01,0.00,29.1,27.9,00.0,38.0,31.0,14.2,0000.0,0033.72,0016.45,0015.06
2021-09-10 18:46:00,,0829.2,5.00,0.00,29.1,27.2,00.0,38.0,30.8,11.9,-000.4,0034.39,0016.45,0015.02
2021-09-10 18:47:00,,0829.1,5.00,0.00,29.0,25.9,00.0,38.0,30.4,12.2,-000.3,0034.53,0016.33,0014.96
2021-09-10 18:48:00,,0829.1,5.01,0.00,28.9,26.2,00.0,38.0,30.4,12.3,-000.1,0034.56,0016.35,0014.95
2021-09-10 18:49:00,,0829.1,4.99,0.00,28.9,26.6,00.0,38.0,30.6,11.8,0000.3,0033.53,0016.37,0014.91
2021-09-10 18:50:00,,0829.1,4.99,0.00,28.9,27.0,00.0,38.0,30.7,11.4,-000.1,0032.22,0016.40,0014.91
2021-09-10 18:51:00,,0829.1,5.00,0.00,29.0,27.4,00.0,38.0,30.8,11.6,0000.2,0030.90,0016.42,0014.94
2021-09-10 18:52:00,,0829.1,5.00,0.00,29.0,27.7,00.0,38.0,31.0,11.6,0000.7,0031.05,0016.37,0014.96
2021-09-10 18:53:00,,0829.1,5.00,0.00,29.1,28.0,00.0,38.0,31.1,11.9,0000.8,0029.93,0016.39,0014.99
2021-09-10 18:54:00,,0829.1,5.01,0.00,29.1,27.3,00.0,38.0,30.8,12.1,0001.4,0027.81,0016.49,0015.06
2021-09-10 18:55:00,,0829.0,5.00,0.00,29.0,26.0,00.0,38.0,30.5,13.3,0001.4,0027.92,0016.58,0015.10
2021-09-10 18:56:00,,0829.0,4.99,0.00,29.0,26.2,00.0,38.0,30.5,11.8,0001.2,0028.11,0016.59,0015.14
2021-09-10 18:57:00,,0828.9,5.00,0.00,29.0,26.7,00.0,38.0,30.7,12.2,0001.3,0029.16,0016.70,0015.20
2021-09-10 18:58:00,,0828.9,5.01,0.00,29.0,27.1,00.0,38.0,30.8,13.3,0001.6,0029.08,0016.84,0015.27
2021-09-10 18:59:00,,0828.8,5.01,0.00,29.0,27.4,00.0,38.0,30.9,13.0,0001.4,0030.21,0016.90,0015.32
